Regional Weather Roundup
Issued by NWS

Home | Current Version | Previous Version | Text Only | Print | Product List | Glossary Off
Versions: 1 2 3 4 5 6 7 8 9 10 11 12 13 14 15 16 17 18 19 20 21 22 23 24 25 26 27 28 29 30 31 32 33 34 35 36 37 38 39 40 41 42 43 44 45 46 47 48 49 50

050
ASUS43 KLOT 201403
RWRIL

ILLINOIS REGIONAL WEATHER ROUNDUP
NATIONAL WEATHER SERVICE CHICAGO/ROMEOVILLE IL
800 AM CST TUE FEB 20 2018

NOTE: "FAIR" INDICATES FEW OR NO CLOUDS BELOW 12,000 FEET WITH NO
SIGNIFICANT WEATHER AND/OR OBSTRUCTIONS TO VISIBILITY.

* THESE STATIONS ARE NOT UNDER NWS QUALITY CONTROL. THEY ALSO MAY NOT
  REPORT WEATHER SUCH AS PRECIPITATION OR FOG.

ILZ001-002-007-009-015-016-024-201500-
NORTHWEST ILLINOIS

CITY           SKY/WX    TMP DP  RH WIND       PRES   REMARKS
MOLINE         CLOUDY    38  36  92 W8        29.85R WCI  32
STERLING*        N/A    N/A N/A N/A MISG        N/A
SAVANNA*       RAIN      36  36 100 NW9       29.85S WCI  29
$$

ILZ003-004-008-010-011-017-018-201500-
NORTH CENTRAL ILLINOIS

CITY           SKY/WX    TMP DP  RH WIND       PRES   REMARKS
ROCKFORD       LGT RAIN  40  40 100 SE5       29.85R FOG
FREEPORT*      RAIN      36  36 100 CALM      29.86R
ROCHELLE*      CLOUDY    39  39 100 N6        29.85S WCI  35
DE KALB*       RAIN      53  53 100 SW13G18   29.86R VSB 1/2
PERU*          CLOUDY    56  55  95 S12       29.84R
$$

ILZ005-006-012>014-019>023-201500-
NORTHEAST ILLINOIS

CITY           SKY/WX    TMP DP  RH WIND       PRES   REMARKS
CHICAGO-OHARE  CLOUDY    59  56  89 SW9       29.85S
CHICAGO-MIDWAY CLOUDY    60  60 100 SW9       29.87R
AURORA         LGT RAIN  55  55 100 S8        29.84S FOG
LANSING*       CLOUDY    60  60  99 SW16      29.90R
JOLIET*        DRIZZLE   61  60  98 S10G16    29.87R
WAUKEGAN       LGT RAIN  56  56 100 SW8       29.85R
DUPAGE AIRPORT CLOUDY    56  56 100 S9        29.84R
KANKAKEE*      RAIN      60  59  97 SW20G29   29.91R
WHEELING       CLOUDY    58  58 100 S10       29.86R
MORRIS*        CLOUDY    59  57  94 S13       29.85R
ROMEOVILLE*    CLOUDY    58  58  99 SW15      29.86S
NORTHERLY ISL    N/A     59  56  89 S7          N/A
$$

LMZ740>746-201500-
SOUTHERN LAKE MICHIGAN

STATION/POSITION SKY/WX   TEMP    WIND        PRES    VSBY  WAVE
                          AIR SEA DIR/SP/G                  HT/PER
                          (F)     (DEG/KT/KT) (MB)    (MI)  (FT/S)
HARRISON CRIB              60     230/ 13/ 18   N/A
BURNHAM HARBOR             59     220/  5/ 15   N/A
CALUMET HARBOR             58     200/ 10/ 17 1011.1R
BURNS HARBOR               60     220/ 19/ 25 1012.5R
MICHIGAN CITY              60     190/ 24/ 27   N/A
$$

ILZ025>027-034>036-040-047-049-050-058-095>099-201500-
WEST-CENTRAL ILLINOIS

CITY           SKY/WX    TMP DP  RH WIND       PRES   REMARKS
QUINCY         CLOUDY    62  58  86 S10       29.82R
GALESBURG*     FOG       44  44 100 W5        29.84R VSB 1/4
MACOMB*        CLOUDY    51  51 100 S7        29.83S FOG
JACKSONVILLE*  CLOUDY    62  57  84 S12       29.86R
PITTSFIELD*    LGT RAIN  65  59  82 S10       29.86R
$$

ILZ028>032-037-038-041>044-048-051>054-059>061-201500-
CENTRAL ILLINOIS

CITY           SKY/WX    TMP DP  RH WIND       PRES   REMARKS
PONTIAC        CLOUDY    62  62  98 S16G28    29.88R
BLOOMINGTON    CLOUDY    61  58  90 S24G30    29.88R
DECATUR        PTSUNNY   63  61  93 S18G26    29.92R
PEORIA         CLOUDY    61  58  90 S14       29.85R
LACON*         CLOUDY    61  59  93 S15G22    29.83R
LINCOLN*       FAIR      63  60  88 S13G20    29.89R
SPRINGFIELD    FAIR      66  58  75 S17       29.88R
TAYLORVILLE    PTSUNNY   64  58  82 S18G26    29.92R
$$

ILZ033-039-045-046-055>057-062-063-201500-
EAST-CENTRAL ILLINOIS

CITY           SKY/WX    TMP DP  RH WIND       PRES   REMARKS
CHAMPAIGN      LGT RAIN  63  60  90 S22G29    29.94R FOG
DANVILLE*      HVY RAIN  62  60  94 SW16G22   29.94R
RANTOUL*       LGT RAIN  63  62  97 S12       29.93S
MATTOON        PTSUNNY   64  60  87 S15G24    29.95R
PARIS*         CLOUDY    64  60  90 S30G37    29.98R
$$

ILZ079-100>102-201500-
SOUTHWEST ILLINOIS

CITY           SKY/WX    TMP DP  RH WIND       PRES   REMARKS
ALTON          CLOUDY    66  59  77 S16G23    29.93R
CAHOKIA*       CLOUDY    68  59  73 S10G24    29.94R
SPARTA*        CLOUDY    64  64  97 S15G22    29.99S THUNDER
$$

ILZ064>066-069>071-074>076-080>082-084>086-088>090-092>094-201500-
SOUTH-CENTRAL ILLINOIS

CITY           SKY/WX    TMP DP  RH WIND       PRES   REMARKS
CARBONDALE     CLOUDY    68  61  78 S28G46    30.02R
CAIRO*         FAIR      66  58  77 S12       30.07R
EFFINGHAM*     CLOUDY    67  62  84 S17G28    30.00R
MARION         PTSUNNY   66  63  88 S20G28    30.04S
MT. VERNON     PTSUNNY   67  61  81 S23G29    30.01R
CENTRALIA*     CLOUDY    67  62  86 S23G33    29.99R
SALEM*         LGT RAIN  67  61  81 S18G31    30.00R
METROPOLIS*    PTSUNNY   68  57  67 S12G23    30.09R
$$

ILZ067-068-072-073-078-083-087-091-201500-
SOUTHEAST ILLINOIS

CITY           SKY/WX    TMP DP  RH WIND       PRES   REMARKS
LAWRENCEVILLE  PTSUNNY   68  59  73 S24G36    30.04R
FLORA*         PTSUNNY   68  61  77 S23G29    30.01R
FAIRFIELD*     CLOUDY    66  61  82 S12       30.03R
HARRISBURG*    PTSUNNY   69  59  72 S22G32    30.07R
ROBINSON*      CLOUDY    65  60  81 S17G25    30.03R
CARMI*         LGT RAIN  67  59  75 S20       30.06R
$$

ABBREVIATIONS USED IN REMARKS
   TC - TEMPERATURE IN CELSIUS
  WCI - WIND CHILL INDEX
   HX - HEAT INDEX
  VSB - VISIBILITY
$$





USA.gov is the U.S. government's official web portal to all federal, state and local government web resources and services.